SCP
1 1 1 1 0 0 0 0 0 0 0 0 0 0 0 0 0 0 0 0 1 2 3 3 2 1 1 0 0 0 0 0 0 0 0 0 0 0 0 0 0 0 0 0 0 1 1 1 1
1 1 1 0 0 0 0 0 0 0 0 0 0 0 0 0 0 1 1 1 1 2 3 2 2 1 1 0 0 0 0 0 0 0 0 0 0 0 1 1 1 0 1 1 1 1 1 1 2
1 1 0 0 0 0 0 0 0 0 0 0 0 0 0 0 0 1 1 1 1 2 3 2 2 1 1 0 0 0 0 0 0 0 0 0 0 0 1 1 1 1 1 1 1 1 1 2 2
1 1 0 0 0 0 0 0 0 0 0 0 0 0 0 0 1 1 1 1 1 2 3 3 2 1 1 0 0 0 0 0 0 0 0 0 0 0 1 1 1 1 1 1 1 0 1 1 1
1 1 0 0 0 0 0 0 0 0 0 0 0 0 1 1 1 1 1 1 1 2 3 2 2 1 1 0 0 0 0 0 0 0 0 0 0 0 0 1 1 1 1 1 1 0 1 1 0
1 1 0 0 0 0 0 0 0 0 0 0 0 0 1 1 1 1 1 1 2 3 2 2 1 1 1 1 0 0 0 0 0 0 0 0 0 0 0 1 1 1 1 1 1 1 1 1 1
1 0 0 0 0 0 0 0 0 0 0 0 0 0 1 1 1 1 2 2 3 3 2 1 1 1 1 1 0 0 0 0 0 0 0 0 0 0 1 0 0 0 1 1 1 1 1 1 1
0 0 0 0 0 0 0 0 0 0 0 0 0 0 1 1 1 2 3 3 3 2 2 1 1 1 1 0 1 1 1 0 0 0 0 0 0 0 0 0 0 0 0 1 1 2 1 1 1
0 0 0 0 0 0 0 0 0 0 0 0 0 1 1 1 2 3 3 3 2 1 1 1 1 1 0 0 0 1 0 0 0 0 0 0 0 0 0 0 0 0 0 1 1 1 1 1 1
0 0 0 0 0 0 0 0 0 0 0 0 0 1 1 1 2 2 2 2 1 1 0 1 1 0 0 0 0 0 0 0 0 0 0 0 0 0 0 0 0 0 0 1 1 1 1 1 0
1 0 0 0 0 0 0 0 0 0 0 0 0 1 1 1 1 1 1 1 1 0 0 0 0 0 0 0 0 0 0 0 0 0 0 0 0 0 0 0 0 0 0 1 1 1 1 0 0
1 0 0 0 0 0 0 0 0 0 0 0 0 1 1 1 1 1 1 1 1 1 0 0 0 0 0 0 0 0 0 0 0 0 0 0 0 0 0 0 0 0 0 0 0 1 0 0 0
0 0 0 0 0 0 0 0 0 0 0 0 0 1 1 1 1 1 1 1 1 1 1 0 0 0 0 0 0 0 0 0 0 0 0 0 0 0 0 0 0 0 0 0 0 0 0 0 0
0 0 0 0 0 0 0 0 0 0 0 0 0 1 1 1 1 1 1 1 1 1 1 1 0 0 0 0 0 0 0 0 1 1 0 0 0 0 0 0 0 0 0 0 0 0 0 0 0
0 0 0 0 1 1 1 0 0 1 1 1 1 1 1 1 0 1 1 1 1 1 1 1 1 0 0 0 0 0 0 1 1 1 1 0 0 0 0 0 0 0 0 0 0 0 0 0 0
0 0 0 0 1 1 1 1 1 1 1 1 1 1 1 1 0 1 1 1 2 2 1 1 1 0 0 0 0 1 1 1 1 1 1 0 0 0 0 0 0 0 0 0 0 0 0 0 0
0 0 0 0 0 1 1 1 1 1 1 1 1 1 1 1 1 1 1 1 2 2 1 1 1 0 0 0 0 1 1 0 0 0 1 1 0 0 0 0 0 0 1 1 1 1 0 0 0
0 0 0 0 0 0 1 1 1 1 1 1 1 1 1 1 1 1 1 2 2 1 1 1 1 0 0 0 0 0 0 0 0 0 0 0 0 0 0 0 1 1 1 1 1 1 1 0 0
0 0 0 0 0 0 0 0 0 1 1 1 1 1 1 1 1 1 2 2 2 1 1 1 1 1 1 1 1 1 1 0 0 0 0 0 0 0 1 1 1 1 1 1 1 1 1 1 0
0 0 0 0 0 0 0 0 0 1 1 1 1 1 1 1 1 1 2 2 1 1 1 1 1 1 1 1 1 1 1 1 1 1 1 0 0 1 1 1 1 2 2 2 2 2 1 1 0
0 0 0 0 0 0 0 0 0 1 1 1 1 1 1 1 1 1 2 1 1 1 1 1 1 1 1 1 1 1 1 1 1 1 1 1 1 1 1 1 2 3 3 3 3 2 1 1 0
0 0 0 0 0 0 1 1 1 1 1 1 1 1 1 1 1 1 2 1 1 1 1 1 1 0 1 1 1 1 1 2 2 2 1 1 1 1 1 1 2 3 4 4 3 3 2 1 1
0 0 0 0 0 0 1 1 1 1 1 1 1 1 1 1 1 2 2 1 1 1 1 1 0 0 1 1 1 2 2 2 2 2 2 1 1 1 1 1 3 4 4 4 4 3 2 1 1
0 0 0 0 0 0 0 0 0 1 1 1 1 1 1 1 1 2 2 1 1 1 1 1 1 1 1 1 1 2 2 2 2 2 2 2 1 1 1 2 3 4 4 4 3 3 2 1 1
0 0 0 0 0 0 0 0 0 0 0 0 1 1 1 1 1 2 2 1 1 1 1 1 1 1 1 1 1 2 2 2 2 2 2 2 2 2 2 3 3 3 3 3 4 4 3 2 1
0 0 0 0 0 0 0 0 0 0 0 0 0 1 1 1 1 2 2 1 1 1 1 2 2 1 1 1 1 1 2 2 2 2 2 2 2 2 2 2 2 1 2 3 4 5 4 3 2
0 0 0 0 0 0 0 0 0 0 0 0 0 0 1 1 1 1 2 1 1 1 2 2 2 1 1 1 1 1 2 2 2 2 2 2 1 1 1 2 1 1 2 3 4 4 4 3 3
0 0 0 0 0 0 0 0 0 0 0 0 0 0 0 0 1 1 2 1 1 2 2 2 2 1 1 1 1 1 1 2 2 2 2 2 1 1 1 1 1 2 2 3 3 3 3 3 3
0 0 0 0 0 0 0 0 0 0 0 0 0 0 0 1 1 2 2 1 1 2 2 1 1 1 1 1 1 1 1 2 2 2 2 2 1 1 1 1 1 1 2 2 3 3 3 3 2
0 0 0 0 0 0 0 0 0 0 0 0 0 0 1 1 1 2 2 1 1 1 1 1 1 2 2 1 1 1 2 2 2 2 2 2 1 1 1 1 1 1 2 2 2 2 2 2 2
Wind_Speed
9 10 8 2 2 1 4 5 7 6 7 9 9 9 11 12 9 8 3 4 7 9 9 9 10 10 10 10 11 11 12 12 12 12 11 12 12 12 12 11 11 11 11 11 10 10 10 9 9
10 7 4 3 2 2 5 5 8 9 7 6 7 9 11 10 10 8 4 3 7 10 9 9 10 10 10 10 11 12 12 12 12 11 12 12 12 11 11 11 11 11 10 10 9 9 8 8 7
11 8 4 2 2 3 5 7 7 7 5 5 6 9 9 7 8 6 5 5 9 10 10 9 10 10 10 11 12 12 12 12 12 11 11 11 11 11 11 11 10 10 10 10 9 8 8 7 6
6 3 3 0 4 6 6 6 5 5 5 5 7 9 8 8 6 7 7 8 10 10 10 9 9 10 10 11 11 11 12 12 11 11 11 11 11 11 10 10 10 10 10 10 9 9 9 8 7
3 3 2 1 4 6 6 6 5 5 5 6 8 10 9 9 10 9 6 8 9 9 9 9 10 10 10 11 11 11 11 11 11 10 10 10 10 10 10 10 10 10 9 9 9 9 9 9 8
3 2 1 2 5 5 5 5 5 6 6 6 8 10 8 8 8 7 7 7 8 9 9 9 10 10 10 11 11 10 10 10 9 9 9 9 9 9 9 9 9 9 9 9 8 8 8 8 8
3 2 1 2 4 4 4 4 5 5 5 4 5 8 8 9 6 7 8 7 7 8 8 8 8 8 9 10 10 10 9 8 8 7 7 7 7 8 9 9 9 9 9 9 8 8 8 7 6
3 2 1 1 3 4 5 3 4 4 5 4 3 7 8 9 7 7 7 7 6 6 7 7 7 7 6 6 9 8 8 7 5 5 4 4 5 6 8 8 7 7 7 7 7 7 6 5 5
3 2 1 1 3 4 5 3 4 4 6 6 7 10 12 13 10 8 7 6 5 5 5 6 6 6 6 6 7 6 6 4 4 3 2 1 2 3 4 6 7 6 6 6 5 5 4 3 3
2 1 1 1 3 4 5 4 5 4 6 7 9 12 13 11 9 8 7 7 6 5 5 5 5 5 5 5 5 3 3 2 1 1 2 1 2 3 4 5 5 5 5 4 3 2 2 1 1
2 1 0 2 3 4 4 4 4 4 4 6 10 12 11 10 8 7 7 7 7 6 5 5 4 5 5 3 2 2 1 1 1 2 3 3 2 2 2 2 2 2 2 1 1 1 1 1 2
2 0 1 1 2 2 2 2 3 2 4 6 8 11 10 9 8 6 6 7 7 6 5 5 4 4 4 4 2 2 2 1 2 2 2 2 1 2 1 1 1 1 1 1 1 1 2 3 3
2 1 1 1 1 2 2 2 2 4 5 6 9 9 9 8 7 6 6 7 7 7 6 5 4 5 4 3 1 3 2 1 2 1 1 3 2 2 1 2 1 1 1 1 2 2 3 3 4
1 2 2 3 3 3 3 3 3 5 6 6 7 8 8 8 7 7 7 8 8 7 6 5 5 5 4 3 2 3 2 1 2 1 2 3 2 2 2 2 2 2 1 2 2 3 3 3 3
3 4 4 5 6 4 4 5 5 7 8 7 7 8 8 8 7 6 7 7 7 7 7 6 5 5 4 4 3 3 2 3 2 2 2 3 2 2 3 2 2 2 2 3 3 3 3 2 3
6 7 6 6 6 5 5 4 5 7 8 8 7 8 8 7 7 6 6 6 6 6 7 6 4 5 5 4 3 2 2 3 2 2 2 3 3 4 3 2 2 2 2 2 2 2 2 3 3
7 7 7 6 6 5 6 4 5 7 8 8 8 9 9 8 8 7 7 6 6 6 7 6 4 5 5 4 3 2 2 2 2 2 2 3 3 4 3 2 2 2 2 2 2 3 2 2 2
4 5 5 5 7 7 7 6 6 8 8 7 6 7 9 10 9 8 7 6 6 5 7 7 5 4 5 3 3 2 2 2 2 2 2 3 3 3 3 2 2 3 2 2 2 2 2 1 1
6 6 5 3 4 6 6 7 6 8 7 6 6 6 8 9 9 8 8 7 6 5 6 6 6 5 4 2 2 2 2 1 2 2 3 3 3 3 2 2 2 2 2 2 2 2 2 2 1
8 8 6 3 4 4 6 7 5 7 9 8 7 6 6 6 7 8 8 7 6 5 5 6 6 5 4 3 2 2 2 2 2 1 2 2 2 3 2 2 2 2 2 2 2 2 1 1 2
9 7 6 5 5 6 7 7 6 6 6 7 6 6 7 8 8 9 8 7 6 6 5 5 6 6 5 3 2 2 2 2 1 1 1 1 2 2 2 2 2 2 2 1 1 1 1 0 2
7 4 6 8 7 5 6 5 4 5 6 7 6 6 6 6 7 8 8 7 7 6 5 5 5 5 5 4 3 4 3 2 2 2 1 1 2 2 2 2 2 2 2 1 0 1 1 1 1
6 6 7 9 8 9 8 7 3 5 5 7 7 7 6 7 7 8 8 8 6 6 5 4 5 5 4 4 4 4 2 2 2 2 2 2 1 1 2 1 1 1 1 1 0 1 1 1 1
6 8 9 8 6 8 9 6 3 3 4 5 7 7 7 6 7 8 7 7 6 5 5 5 5 4 4 4 4 4 4 3 3 2 2 1 1 1 2 2 1 1 1 1 0 1 1 1 1
6 6 4 4 5 5 4 4 1 2 3 3 4 5 6 6 7 8 8 7 6 6 5 5 5 5 4 4 4 4 4 4 4 3 3 2 1 1 2 2 1 1 1 1 1 1 1 0 0
5 7 4 4 4 4 5 4 3 4 4 4 3 3 4 4 5 7 8 7 7 7 6 5 5 5 5 5 4 4 4 3 2 3 3 2 2 2 2 2 1 1 1 1 2 1 0 0 0
5 6 6 6 9 7 3 2 3 4 4 3 3 4 4 4 4 5 6 7 7 7 6 6 5 5 5 5 4 3 3 3 3 3 3 2 2 2 3 3 2 2 1 1 1 1 1 0 0
6 5 4 5 5 5 3 2 1 2 4 3 3 4 4 4 4 5 5 5 6 6 6 6 5 5 4 4 4 3 3 3 3 3 3 3 2 2 2 2 2 3 2 1 1 0 0 1 1
5 6 5 5 5 5 4 1 1 3 3 3 3 3 4 4 4 4 4 5 5 6 6 6 5 4 4 4 4 3 3 3 3 3 3 2 2 2 2 2 2 2 2 2 2 1 1 1 1
4 5 5 4 5 5 4 1 3 4 4 3 3 3 3 4 4 3 3 4 4 5 6 6 5 5 4 4 4 4 4 4 4 3 3 2 2 2 2 3 2 2 2 1 2 1 1 1 1
Wind_Direction
261 248 243 244 265 207 68 69 72 66 60 54 48 61 64 49 52 89 105 76 90 91 91 79 67 66 67 67 66 67 68 68 68 68 68 67 66 66 66 65 67 70 72 71 69 67 63 63 64
276 266 266 241 249 91 81 80 70 64 70 75 68 71 77 67 75 96 106 89 94 91 86 79 71 68 69 69 69 69 69 68 67 68 69 68 68 67 68 68 68 69 70 71 71 68 65 67 65
267 267 265 265 25 64 88 86 90 85 81 82 81 63 58 72 81 95 118 112 94 91 89 85 77 74 73 71 71 72 70 70 69 68 69 69 69 70 69 68 68 69 68 68 69 65 64 69 70
266 265 248 109 67 67 90 96 102 107 86 72 89 81 71 60 86 110 125 111 99 97 97 95 87 83 80 76 74 73 72 70 70 70 69 69 68 69 69 67 66 67 65 65 64 61 60 66 72
247 263 251 113 86 78 80 94 105 95 90 82 84 93 86 80 97 114 117 106 106 105 106 104 100 95 90 84 80 78 75 72 70 70 68 69 69 69 69 68 65 64 64 64 64 63 60 65 68
272 264 262 109 99 90 84 83 81 81 89 93 103 104 98 109 112 118 111 108 109 110 112 112 109 104 98 91 84 82 80 76 73 72 70 72 73 72 69 68 67 64 63 64 64 65 64 62 59
268 283 267 110 110 116 102 85 82 84 82 78 96 103 119 122 127 127 116 112 112 117 121 125 124 112 107 100 91 87 86 83 82 81 76 74 78 77 75 71 67 67 67 66 65 66 66 64 58
275 288 267 127 122 109 101 96 86 86 86 67 67 109 130 136 141 128 122 120 116 118 121 125 127 125 120 110 102 101 101 95 95 97 90 88 91 85 81 78 73 72 71 70 71 70 69 64 55
276 278 287 71 118 117 125 125 110 93 98 85 71 88 125 140 142 136 134 127 120 117 119 123 125 126 125 123 117 121 119 116 116 123 122 108 96 100 94 86 88 85 82 76 74 72 73 70 60
213 275 299 44 103 124 137 150 141 144 129 116 105 105 126 140 147 150 152 144 139 135 124 112 115 117 115 114 128 139 122 140 152 113 97 74 69 76 85 102 95 95 91 82 71 61 32 15 61
209 208 82 53 82 124 151 151 143 156 142 135 132 134 143 150 155 157 153 140 135 131 122 118 114 114 111 102 107 97 85 83 55 64 81 75 70 83 86 101 107 107 108 83 83 59 21 40 60
200 152 10 80 89 150 166 150 135 110 102 119 131 141 150 159 160 158 145 135 135 128 120 121 120 110 103 104 100 100 93 72 54 29 71 77 73 71 78 91 80 82 61 52 33 32 44 38 48
201 181 186 159 176 181 180 173 137 131 116 123 133 146 158 162 159 150 145 137 130 129 133 124 120 109 102 98 106 91 73 84 89 24 51 86 79 82 65 76 69 62 57 45 34 38 35 37 38
177 177 211 201 202 206 204 193 186 158 148 153 153 158 165 162 161 155 150 145 144 145 138 130 129 121 129 127 112 102 108 89 76 46 42 74 72 72 70 64 52 44 47 44 52 55 45 37 40
205 215 217 208 204 191 218 221 202 161 165 172 171 168 167 163 163 164 157 148 146 141 135 132 136 132 119 105 94 95 87 76 66 38 36 61 66 73 73 69 54 31 41 45 43 52 50 50 46
224 226 223 206 205 180 222 237 167 164 178 181 182 175 168 167 169 166 149 145 138 136 133 135 135 123 112 106 93 75 74 77 69 52 28 39 51 58 62 62 54 47 46 40 40 48 46 44 40
223 231 228 193 194 190 211 248 174 174 187 187 189 182 169 172 176 167 152 147 141 140 137 140 140 130 118 111 106 93 83 79 71 61 44 34 46 54 61 52 49 60 60 44 45 47 46 52 41
253 253 244 213 191 209 225 237 190 184 197 197 195 190 176 179 177 166 155 149 145 146 144 143 137 130 121 119 113 98 83 74 65 59 52 42 41 54 54 51 52 60 60 45 54 57 40 50 25
278 278 276 259 196 216 240 247 212 187 190 201 203 199 187 181 167 159 155 151 150 147 145 140 140 138 127 124 120 122 118 98 76 67 59 46 41 56 65 47 53 54 67 66 64 65 50 25 27
271 273 272 269 239 240 247 249 234 197 197 200 203 195 187 173 159 154 157 156 158 155 156 152 150 143 136 135 132 132 127 120 103 86 71 58 48 43 53 59 66 57 56 57 58 67 50 8 5
259 271 282 283 278 259 265 250 234 210 200 188 201 203 190 182 171 164 163 159 160 160 167 158 149 141 138 138 123 115 97 95 99 95 74 61 62 56 45 44 53 70 70 56 41 67 71 30 341
264 276 281 281 276 264 252 262 219 201 187 190 197 205 193 179 173 165 160 161 165 161 162 158 151 151 152 147 140 143 149 156 155 143 133 114 84 76 59 45 52 73 86 84 22 83 68 72 348
281 291 275 272 273 272 253 259 224 182 188 193 194 195 191 176 173 167 161 158 159 158 158 159 153 151 148 151 150 158 154 148 136 130 135 132 117 114 109 83 68 80 92 112 133 94 74 68 64
277 274 261 255 260 262 246 240 231 192 178 176 182 184 185 181 172 161 151 148 155 152 157 160 151 149 149 152 158 166 156 154 142 143 146 151 151 145 129 121 115 122 119 129 124 115 98 49 31
248 270 259 233 223 240 224 228 198 119 122 137 158 166 173 172 162 156 151 155 159 159 159 165 158 158 158 163 171 176 171 169 168 165 164 161 156 152 148 133 153 160 154 147 112 104 128 132 68
254 254 261 276 269 269 230 215 120 108 108 108 122 140 144 145 152 155 157 161 163 163 163 167 170 170 171 175 183 180 170 165 168 163 146 154 166 161 154 156 167 150 143 124 112 105 135 109 121
260 257 275 285 284 278 251 150 118 93 96 107 140 140 142 142 142 151 153 161 166 165 167 175 175 180 181 180 177 177 170 153 149 154 142 153 160 161 166 164 159 143 129 116 120 125 147 154 138
254 285 279 265 280 278 261 255 202 152 144 144 128 127 136 142 149 155 157 161 164 161 165 170 176 181 181 175 170 166 160 150 152 146 146 156 159 145 149 160 163 153 151 153 128 138 184 152 172
229 248 260 272 267 278 284 333 66 118 92 93 105 116 128 135 142 152 155 160 161 160 165 172 172 173 174 175 169 165 159 154 148 147 149 154 152 158 170 176 172 158 158 165 153 178 171 203 210
247 258 263 269 282 285 285 285 63 89 82 64 72 94 115 125 130 137 148 162 163 167 169 170 173 176 177 173 169 171 164 160 158 157 150 154 173 177 172 165 172 169 156 165 153 183 208 219 224